Weather History for Everett, WA

Change the Weather History Date:

Wednesday, May 13, 2009

  Actual Average Record
Temperature  
Mean Temperature 46 °F -  
Max Temperature 50 °F 63 °F 79 °F (1988)
Min Temperature 43 °F 45 °F 35 °F (1956)
Degree Days  
Heating Degree Days 18    
Moisture  
Dew Point 39 °F    
Average Humidity 78    
Maximum Humidity 93    
Minimum Humidity 50    
Precipitation  
Precipitation 0.11 in - - ()
Sea Level Pressure  
Sea Level Pressure 30.04 in    
Wind  
Wind Speed 8 mph (South)    
Max Wind Speed 15 mph    
Max Gust Speed 18 mph    
Visibility 9 miles    
Events Rain    
Averages and records for this station are not official NWS values.
T = Trace of Precipitation, MM = Missing Value Source: NWS Daily Summary

Daily Weather History Graph

Daily Weather History Graph

Search for Another Location

Airport:

Trip Planner

Search our weather history database for the weather conditions in past years. The results will help you decide how hot, cold, wet, or windy it might be!

Date:

Astronomy

May. 13, 2009 Rise Set
Actual Time 5:32 AM PDT 8:38 PM PDT
Civil Twilight 4:56 AM PDT 9:15 PM PDT
Nautical Twilight 4:08 AM PDT 10:03 PM PDT
Astronomical Twilight 3:10 AM PDT 11:03 PM PDT
Moon 12:30 AM PDT (5/13) 8:39 AM PDT (5/13)
Length of Visible Light 16h 19m
Length of Day
15h 06m
Waning Gibbous, 81% of the Moon is Illuminated
May 13
Waning Gibbous
May 17
Last Quarter
May 24
New
May 30
First Quarter
Jun 7
Full

Hourly Weather History & Observations

Time (PDT) Temp. Windchill Dew Point Humidity Pressure Visibility Wind Dir Wind Speed Gust Speed Precip Events Conditions
12:07 AM 46.4 °F 45.2 °F 37.4 °F 71% 30.21 in 10.0 mi NE 3.5 mph - N/A   Overcast
12:53 AM 46.9 °F - 37.0 °F 68% 30.21 in 10.0 mi Variable 4.6 mph - N/A   Overcast
1:53 AM 46.9 °F - 37.9 °F 71% 30.21 in 10.0 mi SSW 9.2 mph - 0.00 in   Overcast
2:53 AM 45.0 °F 40.6 °F 37.9 °F 76% 30.22 in 10.0 mi South 8.1 mph - 0.00 in   Overcast
3:53 AM 45.0 °F 39.3 °F 37.0 °F 74% 30.21 in 10.0 mi South 11.5 mph - N/A   Mostly Cloudy
4:10 AM 44.6 °F 39.2 °F 37.4 °F 76% 30.20 in 10.0 mi SSE 10.4 mph - N/A   Scattered Clouds
4:53 AM 43.0 °F 37.7 °F 36.0 °F 76% 30.19 in 10.0 mi SSE 9.2 mph - N/A   Clear
5:53 AM 43.0 °F 41.3 °F 36.0 °F 76% 30.17 in 10.0 mi Variable 3.5 mph - N/A   Clear
6:53 AM 43.0 °F 38.2 °F 36.0 °F 76% 30.17 in 10.0 mi SSE 8.1 mph - N/A   Clear
7:53 AM 44.1 °F 39.0 °F 36.0 °F 73% 30.15 in 10.0 mi SSE 9.2 mph - N/A   Clear
8:53 AM 46.0 °F 41.0 °F 35.1 °F 66% 30.12 in 10.0 mi SSE 10.4 mph - N/A   Overcast
9:53 AM 48.0 °F - 33.1 °F 56% 30.10 in 10.0 mi SSE 10.4 mph - N/A   Overcast
10:53 AM 48.0 °F - 33.1 °F 56% 30.08 in 10.0 mi SSE 10.4 mph - N/A   Overcast
11:53 AM 48.9 °F - 33.1 °F 54% 30.04 in 10.0 mi SE 5.8 mph - N/A   Mostly Cloudy
12:53 PM 48.9 °F - 33.1 °F 54% 30.02 in 10.0 mi SW 5.8 mph - N/A   Scattered Clouds
1:53 PM 50.0 °F - 32.0 °F 50% 30.02 in 10.0 mi SSW 8.1 mph - N/A   Mostly Cloudy
2:53 PM 48.9 °F - 36.0 °F 61% 29.99 in 10.0 mi South 11.5 mph 17.3 mph 0.00 in Rain Light Rain
3:53 PM 46.0 °F 41.4 °F 39.9 °F 79% 29.96 in 10.0 mi SSW 9.2 mph - 0.00 in Rain Light Rain
4:22 PM 44.6 °F 39.7 °F 39.2 °F 81% 29.94 in 9.0 mi SSW 9.2 mph - 0.02 in Rain Light Rain
4:39 PM 44.6 °F 40.2 °F 39.2 °F 81% 29.93 in 5.0 mi SSW 8.1 mph - 0.03 in Rain Light Rain
4:42 PM 44.6 °F 40.2 °F 39.2 °F 81% 29.93 in 5.0 mi SSW 8.1 mph - 0.04 in Rain Light Rain
4:53 PM 44.1 °F 39.5 °F 41.0 °F 89% 29.94 in 4.0 mi SW 8.1 mph - 0.05 in Rain Light Rain
5:53 PM 45.0 °F 41.8 °F 41.0 °F 86% 29.89 in 9.0 mi South 5.8 mph - 0.05 in Rain Light Rain
5:55 PM 44.6 °F 40.7 °F 41.0 °F 87% 29.88 in 10.0 mi South 6.9 mph - 0.00 in Rain Light Rain
6:03 PM 44.6 °F 40.7 °F 41.0 °F 87% 29.88 in 10.0 mi South 6.9 mph - 0.00 in Rain Light Rain
6:53 PM 44.1 °F 39.0 °F 41.0 °F 89% 29.85 in 10.0 mi SSE 9.2 mph - 0.00 in Rain Light Rain
7:53 PM 45.0 °F 42.6 °F 42.1 °F 90% 29.80 in 10.0 mi Variable 4.6 mph - 0.01 in   Overcast
8:00 PM 44.6 °F 40.7 °F 41.0 °F 87% 29.79 in 10.0 mi Variable 6.9 mph - N/A   Overcast
8:53 PM 45.0 °F 40.1 °F 41.0 °F 86% - 10.0 mi SSE 9.2 mph 16.1 mph N/A   Overcast
9:11 PM 44.6 °F 42.2 °F 42.8 °F 93% - 10.0 mi Variable 4.6 mph - N/A   Overcast
9:23 PM 44.6 °F 40.2 °F 42.8 °F 93% - 10.0 mi SSE 8.1 mph - N/A   Overcast
9:53 PM 45.0 °F 38.5 °F 42.1 °F 90% - 10.0 mi SSE 13.8 mph 18.4 mph N/A   Overcast
10:05 PM 44.6 °F 39.2 °F 42.8 °F 93% - 10.0 mi SSE 10.4 mph 17.3 mph N/A   Overcast
10:18 PM 44.6 °F 40.7 °F 42.8 °F 93% - 8.0 mi Variable 6.9 mph - N/A   Overcast
10:53 PM 46.0 °F 41.0 °F 42.1 °F 86% - 10.0 mi SSE 10.4 mph - 0.00 in   Overcast
11:53 PM 46.0 °F 39.6 °F 42.1 °F 86% - 10.0 mi SSE 15.0 mph - 0.00 in Rain Light Rain